GW5959 Weather Reports


Display with metric or nautical units.
time (UTC)temp
F
wind
direction
speed
MPH
gust
MPH
rain 1hr
in
rain 24hr
in
rain mn
in
humidity
%
barometer
mb
20260507075833 43 279 3.0 4.0 0.00 0.00 0.00 75 1012.6
20260507075329 42 290 3.0 4.0 0.00 0.00 0.00 76 1012.8
20260507074826 42 281 2.0 3.0 0.00 0.00 0.00 76 1012.7
20260507074324 42 274 2.0 3.0 0.00 0.00 0.00 77 1012.8
20260507073821 43 271 2.0 3.0 0.00 0.00 0.00 77 1012.9
20260507073317 43 267 2.0 3.0 0.00 0.00 0.00 75 1012.7
20260507072815 43 268 2.0 3.0 0.00 0.00 0.00 75 1012.8
20260507072312 43 271 2.0 3.0 0.00 0.00 0.00 76 1012.8
20260507071809 43 279 3.0 3.0 0.00 0.00 0.00 77 1012.7
20260507071306 43 262 2.0 2.0 0.00 0.00 0.00 77 1012.7
20260507070802 42 269 2.0 3.0 0.00 0.00 0.00 78 1013.0
20260507070300 43 258 2.0 3.0 0.00 0.00 0.00 78 1012.9
20260507065756 43 263 3.0 3.0 0.00 0.00 0.00 78 1012.9
20260507065253 43 253 2.0 2.0 0.00 0.00 0.00 77 1012.8
20260507064750 44 258 2.0 2.0 0.00 0.00 0.00 76 1012.8
20260507064249 44 270 3.0 4.0 0.00 0.00 0.00 75 1012.8
20260507063746 44 251 3.0 3.0 0.00 0.00 0.00 75 1012.7
20260507063243 44 266 4.0 4.0 0.00 0.00 0.00 75 1012.9
20260507062739 44 271 3.0 6.0 0.00 0.00 0.00 76 1013.1
20260507062237 43 272 3.0 4.0 0.00 0.00 0.00 77 1013.1
20260507061735 44 275 3.0 3.0 0.00 0.00 0.00 78 1013.1
20260507061232 44 266 2.0 3.0 0.00 0.00 0.00 78 1013.0
20260507060731 44 261 2.0 3.0 0.00 0.00 0.00 78 1012.9
20260507060227 44 241 3.0 3.0 0.00 0.00 0.00 79 1012.8
20260507055723 44 257 2.0 3.0 0.00 0.00 0.00 79 1012.8
20260507055218 44 255 2.0 3.0 0.00 0.00 0.00 79 1013.0
20260507054715 44 257 2.0 3.0 0.00 0.00 0.00 79 1013.0
20260507054212 44 247 2.0 3.0 0.00 0.00 0.00 78 1012.9
20260507053710 44 246 3.0 3.0 0.00 0.00 0.00 78 1012.8
20260507053207 44 265 3.0 3.0 0.00 0.00 0.00 79 1012.9
20260507052706 44 267 2.0 3.0 0.00 0.00 0.00 79 1012.8
20260507052201 44 252 2.0 2.0 0.00 0.00 0.00 79 1013.0
20260507051659 44 248 2.0 2.0 0.00 0.00 0.00 79 1012.9
20260507051156 44 249 1.0 2.0 0.00 0.00 0.00 79 1012.8
20260507050653 45 249 1.0 1.0 0.00 0.00 0.00 78 1012.8
20260507050150 45 251 2.0 2.0 0.00 0.00 0.00 79 1013.0
20260507045646 45 252 1.0 3.0 0.00 0.00 0.00 79 1012.8
20260507045143 45 266 2.0 2.0 0.00 0.00 0.00 79 1012.9
20260507044640 45 263 1.0 3.0 0.00 0.00 0.00 78 1012.7
20260507044137 45 252 2.0 3.0 0.00 0.00 0.00 78 1012.7
20260507043633 46 252 2.0 3.0 0.00 0.00 0.00 77 1012.7
20260507043130 46 256 2.0 3.0 0.00 0.00 0.00 77 1012.5
20260507042626 46 244 3.0 3.0 0.00 0.00 0.00 77 1012.8
20260507042121 46 241 2.0 3.0 0.00 0.00 0.00 77 1012.9
20260507041618 46 246 3.0 3.0 0.00 0.00 0.00 77 1012.8
20260507041115 46 237 2.0 2.0 0.00 0.00 0.00 77 1013.0
20260507040612 46 251 2.0 3.0 0.00 0.00 0.00 77 1012.9
20260507040109 46 256 3.0 3.0 0.00 0.00 0.00 76 1013.0
20260507035604 47 250 3.0 3.0 0.00 0.12 0.12 76 1012.6
20260507035101 47 243 3.0 3.0 0.00 0.12 0.12 76 1012.7
20260507034558 47 238 2.0 3.0 0.00 0.12 0.12 76 1012.9
20260507034056 47 226 3.0 4.0 0.00 0.12 0.12 76 1012.7
20260507033554 47 212 3.0 3.0 0.00 0.12 0.12 76 1013.0
20260507033050 47 219 2.0 3.0 0.00 0.12 0.12 77 1012.6
20260507032547 46 219 2.0 3.0 0.00 0.12 0.12 78 1012.8
20260507032044 46 218 2.0 2.0 0.00 0.12 0.12 79 1012.9
20260507031540 46 208 2.0 3.0 0.00 0.12 0.12 79 1012.9
20260507031037 46 208 3.0 3.0 0.00 0.12 0.12 79 1013.0
20260507030533 46 204 3.0 3.0 0.00 0.12 0.12 80 1012.9
20260507030032 46 206 2.0 3.0 0.00 0.12 0.12 80 1012.8
20260507025529 46 203 2.0 3.0 0.00 0.12 0.12 79 1013.0
20260507025026 47 195 3.0 4.0 0.00 0.12 0.12 79 1013.1
20260507024524 47 201 4.0 4.0 0.00 0.12 0.12 78 1013.1
20260507024020 46 214 3.0 3.0 0.00 0.12 0.12 79 1013.0
20260507023516 45 205 2.0 3.0 0.00 0.12 0.12 82 1013.1
20260507023014 45 181 0.0 2.0 0.00 0.12 0.12 81 1013.1
20260507022510 45 191 3.0 4.0 0.00 0.12 0.12 81 1013.2
20260507022006 45 189 3.0 3.0 0.00 0.12 0.12 82 1013.0
20260507021502 45 190 3.0 3.0 0.00 0.12 0.12 84 1013.1
20260507020959 45 197 1.0 2.0 0.00 0.12 0.12 83 1013.0
20260507020456 45 200 1.0 2.0 0.00 0.12 0.12 82 1012.9
20260507015953 45 204 2.0 2.0 0.00 0.12 0.12 82 1012.9
20260507015451 45 149 1.0 2.0 0.00 0.12 0.12 81 1012.7
20260507014948 45 149 1.0 1.0 0.00 0.12 0.12 81 1012.8
20260507014445 46 149 0.0 1.0 0.00 0.12 0.12 80 1012.7
20260507013940 46 149 1.0 1.0 0.00 0.12 0.12 80 1012.9
20260507013437 46 149 0.0 1.0 0.00 0.12 0.12 80 1012.8
20260507012935 46 149 1.0 1.0 0.00 0.12 0.12 81 1012.5
20260507012431 47 148 1.0 1.0 0.00 0.12 0.12 78 1012.6
20260507011928 47 154 1.0 1.0 0.00 0.12 0.12 75 1012.5
20260507011426 47 156 1.0 1.0 0.00 0.12 0.12 74 1012.4
20260507010925 48 150 1.0 1.0 0.00 0.12 0.12 74 1012.7
20260507010421 48 169 1.0 1.0 0.00 0.12 0.12 72 1012.4
20260507005918 49 177 1.0 1.0 0.00 0.12 0.12 71 1012.3
20260507005415 49 259 0.0 0.0 0.00 0.12 0.12 69 1012.2
20260507004911 50 260 0.0 0.0 0.00 0.12 0.12 66 1012.4
20260507004408 51 261 0.0 0.0 0.00 0.12 0.12 62 1012.3
20260507003906 51 261 0.0 0.0 0.00 0.12 0.12 61 1012.2
20260507003401 52 261 0.0 0.0 0.00 0.12 0.12 61 1012.3
20260507002856 52 261 1.0 1.0 0.00 0.12 0.12 61 1012.3
20260507002352 52 268 1.0 1.0 0.00 0.12 0.12 60 1012.2
20260507001850 52 277 1.0 2.0 0.00 0.12 0.12 59 1012.0
20260507001347 53 278 2.0 2.0 0.00 0.12 0.12 59 1012.0
20260507000843 53 287 2.0 2.0 0.00 0.12 0.12 58 1012.2
20260507000339 54 286 3.0 4.0 0.00 0.12 0.12 57 1012.0
20260506235835 53 293 2.0 2.0 0.00 0.12 0.12 56 1012.2
20260506235332 53 280 2.0 3.0 0.00 0.12 0.12 58 1012.2
20260506234828 53 281 3.0 4.0 0.00 0.12 0.12 56 1012.2
20260506234326 53 320 4.0 6.0 0.00 0.12 0.12 57 1012.2
20260506233824 53 305 5.0 6.0 0.00 0.12 0.12 55 1012.1
20260506233319 54 248 4.0 4.0 0.00 0.12 0.12 54 1012.0
20260506232817 55 299 5.0 6.0 0.00 0.12 0.12 52 1012.2
20260506232312 55 307 4.0 6.0 0.00 0.12 0.12 53 1012.3
20260506231808 54 307 5.0 7.0 0.00 0.12 0.12 53 1012.2
20260506231307 54 303 5.0 6.0 0.00 0.12 0.12 54 1012.2
20260506230804 53 307 4.0 7.0 0.00 0.12 0.12 54 1012.3
20260506230300 53 295 4.0 6.0 0.00 0.12 0.12 56 1012.2
20260506225757 53 292 4.0 6.0 0.00 0.12 0.12 57 1012.2
20260506225254 53 293 6.0 7.0 0.00 0.12 0.12 54 1012.6
20260506224750 53 290 4.0 7.0 0.00 0.12 0.12 57 1012.4
20260506224248 53 301 6.0 8.0 0.00 0.12 0.12 55 1012.5
20260506223744 53 297 7.0 8.0 0.00 0.12 0.12 55 1012.6
20260506223239 53 323 6.0 8.0 0.00 0.12 0.12 56 1012.5
20260506222737 53 314 4.0 7.0 0.00 0.12 0.12 56 1012.5
20260506222232 53 309 6.0 9.0 0.00 0.12 0.12 54 1012.7
20260506221731 53 299 5.0 7.0 0.00 0.12 0.12 57 1012.6
20260506221228 53 312 5.0 7.0 0.00 0.12 0.12 57 1012.3
20260506220725 53 283 6.0 10.0 0.00 0.12 0.12 56 1012.5
20260506220220 53 276 8.0 9.0 0.00 0.12 0.12 56 1012.2
20260506215717 53 307 6.0 8.0 0.00 0.12 0.12 54 1012.2
20260506215212 53 302 7.0 8.0 0.00 0.12 0.12 53 1012.4
20260506214709 53 291 7.0 9.0 0.00 0.12 0.12 53 1012.4
20260506214207 53 283 6.0 7.0 0.00 0.12 0.12 54 1012.4
20260506213705 53 301 6.0 9.0 0.00 0.12 0.12 57 1012.4
20260506213202 53 310 6.0 8.0 0.00 0.12 0.12 55 1012.3
20260506212659 53 329 6.0 10.0 0.00 0.12 0.12 55 1012.1
20260506212154 53 294 8.0 11.0 0.00 0.12 0.12 53 1011.9
20260506211650 53 342 8.0 10.0 0.00 0.12 0.12 54 1012.0
20260506211146 53 302 6.0 8.0 0.00 0.12 0.12 54 1012.3
20260506210643 53 318 7.0 9.0 0.00 0.12 0.12 52 1012.0
20260506210140 53 278 7.0 10.0 0.00 0.12 0.12 52 1011.8
20260506205638 53 315 6.0 8.0 0.00 0.12 0.12 53 1011.9
20260506205132 53 307 6.0 8.0 0.00 0.12 0.12 53 1011.9
20260506204630 53 291 7.0 9.0 0.00 0.12 0.12 51 1012.0
20260506204127 53 304 6.0 9.0 0.00 0.12 0.12 52 1012.1
20260506203625 54 316 8.0 11.0 0.00 0.12 0.12 51 1012.1
20260506203121 53 301 7.0 8.0 0.00 0.12 0.12 53 1012.0
20260506202619 53 300 8.0 9.0 0.00 0.12 0.12 52 1012.1
20260506202115 54 291 9.0 10.0 0.00 0.12 0.12 51 1011.9
20260506201613 54 315 10.0 13.0 0.00 0.12 0.12 52 1012.1
20260506201109 54 325 8.0 10.0 0.00 0.12 0.12 50 1012.1
20260506200606 54 323 6.0 8.0 0.00 0.12 0.12 48 1012.1
20260506195559 54 324 11.0 14.0 0.00 0.12 0.12 49 1012.0
20260506195055 54 332 8.0 9.0 0.00 0.12 0.12 51 1012.1
20260506194553 54 326 10.0 11.0 0.00 0.12 0.12 49 1011.9
20260506194049 54 315 6.0 10.0 0.00 0.12 0.12 51 1012.2
20260506193547 54 332 9.0 13.0 0.00 0.12 0.12 55 1011.9
20260506193044 54 308 5.0 8.0 0.00 0.12 0.12 51 1012.1
20260506192541 54 309 11.0 13.0 0.00 0.12 0.12 52 1012.2
20260506192037 54 276 4.0 8.0 0.00 0.12 0.12 50 1012.1
20260506191534 54 320 10.0 11.0 0.00 0.12 0.12 52 1012.1
20260506191029 54 266 5.0 7.0 0.00 0.12 0.12 50 1011.9
20260506190527 54 320 4.0 9.0 0.00 0.12 0.12 51 1012.1
20260506190024 54 326 4.0 6.0 0.00 0.12 0.12 55 1012.1
20260506185521 54 324 9.0 9.0 0.00 0.12 0.12 51 1012.1
20260506185017 53 305 6.0 9.0 0.00 0.12 0.12 52 1011.9
20260506184515 53 299 6.0 7.0 0.00 0.12 0.12 53 1012.1
20260506184012 53 322 6.0 9.0 0.00 0.12 0.12 53 1012.1
20260506183507 53 329 7.0 9.0 0.00 0.12 0.12 53 1012.3
20260506183005 53 307 4.0 6.0 0.00 0.12 0.12 55 1012.2
20260506182501 53 304 7.0 8.0 0.00 0.12 0.12 53 1012.4
20260506181959 53 307 7.0 8.0 0.00 0.12 0.12 51 1012.0
20260506181457 53 319 5.0 6.0 0.00 0.12 0.12 53 1012.0
20260506180953 53 290 4.0 7.0 0.00 0.12 0.12 53 1011.8
20260506180450 53 313 6.0 7.0 0.00 0.12 0.12 55 1012.1
20260506175947 53 303 7.0 8.0 0.00 0.12 0.12 52 1012.0
20260506175443 53 334 6.0 10.0 0.00 0.12 0.12 53 1012.0
20260506174940 53 293 6.0 9.0 0.00 0.12 0.12 55 1012.0
20260506174438 53 316 5.0 9.0 0.00 0.12 0.12 53 1011.9
20260506173934 53 313 9.0 11.0 0.00 0.12 0.12 49 1012.3
20260506173432 54 312 8.0 11.0 0.00 0.12 0.12 50 1012.1
20260506172929 54 301 7.0 9.0 0.00 0.12 0.12 55 1012.1
20260506172426 54 330 6.0 7.0 0.00 0.12 0.12 55 1012.1
20260506171922 54 305 5.0 10.0 0.00 0.12 0.12 53 1012.0
20260506171420 54 316 6.0 14.0 0.00 0.12 0.12 52 1011.9
20260506170918 54 318 6.0 9.0 0.00 0.12 0.12 54 1011.8
20260506170414 54 340 5.0 9.0 0.00 0.12 0.12 58 1011.9
20260506165913 54 321 6.0 9.0 0.00 0.12 0.12 50 1011.9
20260506165411 54 346 4.0 7.0 0.00 0.12 0.12 54 1011.9
20260506164906 54 4 8.0 15.0 0.00 0.12 0.12 54 1012.2
20260506164403 54 353 6.0 13.0 0.00 0.12 0.12 52 1012.4
20260506163902 54 318 7.0 9.0 0.00 0.12 0.12 52 1012.1
20260506163355 54 313 7.0 15.0 0.00 0.12 0.12 51 1012.3
20260506162850 54 336 6.0 10.0 0.00 0.12 0.12 51 1012.0
20260506162349 53 339 9.0 10.0 0.00 0.12 0.12 55 1012.0
20260506161846 53 320 8.0 11.0 0.00 0.12 0.12 57 1011.7
20260506161343 53 345 9.0 10.0 0.00 0.12 0.12 57 1011.7
20260506160841 53 338 5.0 11.0 0.00 0.12 0.12 56 1011.7
20260506160337 54 2 7.0 15.0 0.00 0.12 0.12 56 1012.3
20260506155836 54 321 6.0 10.0 0.00 0.12 0.12 59 1011.8
20260506155332 53 308 4.0 8.0 0.00 0.12 0.12 64 1011.9
20260506153444 53 23 6.0 8.0 0.00 0.12 0.12 61 1011.9
20260506152942 53 306 7.0 11.0 0.00 0.12 0.12 62 1011.9
20260506152439 53 320 5.0 8.0 0.00 0.12 0.12 62 1011.9
20260506151937 53 326 10.0 14.0 0.00 0.12 0.12 64 1011.6
20260506151434 53 18 5.0 8.0 0.00 0.12 0.12 67 1011.5
20260506150932 52 330 9.0 13.0 0.00 0.12 0.12 66 1011.8
20260506150427 52 338 6.0 8.0 0.00 0.12 0.12 64 1011.4
20260506145925 52 332 8.0 14.0 0.00 0.12 0.12 66 1011.5
20260506145421 51 17 2.0 7.0 0.00 0.12 0.12 64 1011.4
20260506144919 51 16 6.0 9.0 0.00 0.12 0.12 66 1011.3
20260506144415 51 25 7.0 10.0 0.00 0.12 0.12 68 1011.0
20260506143914 51 332 7.0 8.0 0.00 0.12 0.12 69 1011.1
20260506143410 50 322 6.0 8.0 0.00 0.12 0.12 70 1011.3
20260506142908 50 331 6.0 9.0 0.00 0.12 0.12 70 1011.3
20260506142406 50 338 6.0 11.0 0.00 0.12 0.12 72 1011.1
20260506141904 50 10 10.0 13.0 0.00 0.12 0.12 71 1011.2
20260506141402 49 327 7.0 13.0 0.00 0.12 0.12 73 1011.1
20260506140900 50 335 9.0 10.0 0.00 0.12 0.12 73 1011.2
20260506140356 49 303 6.0 8.0 0.00 0.12 0.12 78 1011.3
20260506135853 49 318 9.0 10.0 0.00 0.12 0.12 74 1011.4
20260506135350 49 306 7.0 13.0 0.00 0.12 0.12 75 1011.1
20260506134846 49 333 9.0 10.0 0.00 0.12 0.12 76 1010.8
20260506134343 48 315 6.0 8.0 0.00 0.12 0.12 80 1010.8
20260506133840 48 324 9.0 13.0 0.00 0.12 0.12 80 1010.7
20260506133336 48 321 7.0 11.0 0.00 0.12 0.12 80 1010.8
20260506132833 47 305 6.0 10.0 0.00 0.12 0.12 81 1010.6
20260506132330 47 321 7.0 8.0 0.00 0.12 0.12 80 1010.8
20260506131828 47 321 6.0 9.0 0.00 0.12 0.12 82 1010.7
20260506131324 47 319 6.0 8.0 0.00 0.12 0.12 82 1010.6
20260506130822 47 298 8.0 9.0 0.00 0.12 0.12 81 1010.9
20260506130318 47 311 6.0 8.0 0.00 0.12 0.12 81 1010.7
20260506125816 46 318 4.0 8.0 0.00 0.12 0.12 84 1010.8
20260506125314 46 302 6.0 9.0 0.00 0.12 0.12 82 1010.6
20260506124813 46 316 9.0 10.0 0.00 0.12 0.12 82 1010.7
20260506124309 46 323 4.0 6.0 0.00 0.12 0.12 87 1010.6
20260506123807 45 333 6.0 8.0 0.00 0.12 0.12 87 1010.4
20260506123305 45 313 5.0 6.0 0.00 0.12 0.12 88 1010.3
20260506122801 45 289 5.0 6.0 0.00 0.12 0.12 90 1010.5
20260506122259 45 320 6.0 8.0 0.00 0.12 0.12 90 1010.2
20260506121757 45 318 6.0 7.0 0.00 0.12 0.12 90 1010.0
20260506121253 45 325 5.0 6.0 0.00 0.12 0.12 91 1010.0
20260506120751 44 334 4.0 6.0 0.00 0.12 0.12 91 1010.0
20260506120248 44 322 4.0 6.0 0.00 0.12 0.12 91 1009.8
20260506115746 44 330 5.0 8.0 0.00 0.12 0.12 91 1009.8
20260506115244 44 307 5.0 7.0 0.00 0.12 0.12 92 1010.1
20260506114741 44 323 4.0 4.0 0.00 0.12 0.12 93 1009.8
20260506114239 44 336 5.0 6.0 0.00 0.12 0.12 93 1009.7
20260506113737 43 336 5.0 6.0 0.00 0.12 0.12 93 1009.5
20260506113234 43 341 5.0 6.0 0.00 0.12 0.12 93 1009.2
20260506112730 43 338 4.0 6.0 0.00 0.12 0.12 94 1009.2
20260506112228 43 338 2.0 4.0 0.00 0.12 0.12 94 1009.3
20260506111725 43 340 3.0 4.0 0.00 0.12 0.12 94 1009.1
20260506111224 43 331 4.0 4.0 0.00 0.12 0.12 94 1008.9
20260506110721 43 335 4.0 6.0 0.00 0.12 0.12 94 1008.9
20260506110218 43 333 5.0 6.0 0.00 0.12 0.12 94 1008.9
20260506105714 43 334 4.0 4.0 0.00 0.12 0.12 95 1008.9
20260506105211 43 330 2.0 3.0 0.00 0.12 0.12 95 1008.7
20260506104710 43 343 4.0 4.0 0.00 0.12 0.12 95 1008.7
20260506104207 43 8 2.0 4.0 0.00 0.12 0.12 95 1008.6
20260506103703 43 350 2.0 3.0 0.00 0.12 0.12 95 1008.2
20260506103200 43 339 2.0 3.0 0.00 0.12 0.12 95 1008.8
20260506102659 43 2 1.0 2.0 0.00 0.12 0.12 95 1008.5
20260506102156 43 323 1.0 2.0 0.00 0.12 0.12 95 1008.7
20260506101652 43 327 2.0 2.0 0.00 0.12 0.12 95 1008.6
20260506101149 43 341 2.0 3.0 0.00 0.12 0.12 95 1008.3
20260506100648 43 340 3.0 3.0 0.00 0.12 0.12 95 1008.5
20260506100145 43 353 2.0 4.0 0.00 0.12 0.12 95 1008.2
20260506095644 43 333 4.0 4.0 0.00 0.12 0.12 95 1008.5
20260506095140 43 334 4.0 4.0 0.00 0.12 0.12 95 1008.6
20260506094638 43 329 3.0 3.0 0.00 0.12 0.12 95 1008.3
20260506094135 43 354 2.0 3.0 0.00 0.12 0.12 95 1008.2
20260506093634 43 346 3.0 4.0 0.00 0.12 0.12 95 1008.0
20260506093130 43 22 2.0 4.0 0.00 0.12 0.12 95 1008.0
20260506092628 43 355 5.0 7.0 0.00 0.12 0.12 95 1007.9
20260506092125 43 342 2.0 7.0 0.00 0.12 0.12 95 1008.0
20260506091623 43 343 5.0 6.0 0.00 0.12 0.12 96 1008.0
20260506091120 43 32 4.0 6.0 0.00 0.12 0.12 96 1007.8
20260506090619 43 1 2.0 4.0 0.00 0.12 0.12 96 1008.1
20260506090114 43 353 4.0 4.0 0.00 0.12 0.12 96 1008.0
20260506085611 43 351 5.0 7.0 0.00 0.12 0.12 96 1007.8
20260506085108 43 351 5.0 6.0 0.00 0.12 0.12 96 1008.1
20260506084604 43 338 5.0 6.0 0.00 0.12 0.12 96 1008.4
20260506084101 43 326 3.0 4.0 0.00 0.12 0.12 95 1007.9
20260506083558 43 23 4.0 4.0 0.00 0.12 0.12 96 1007.6
20260506083055 43 13 4.0 4.0 0.00 0.12 0.12 96 1007.4
20260506082552 43 41 4.0 4.0 0.00 0.12 0.12 95 1007.3
20260506082048 43 51 1.0 3.0 0.05 0.12 0.12 95 1007.4
20260506081546 43 19 4.0 4.0 0.00 0.11 0.11 95 1007.5
20260506081043 43 358 2.0 4.0 0.00 0.11 0.11 95 1008.0
20260506080541 43 341 2.0 6.0 0.00 0.11 0.11 95 1008.3